Tracking 19563 objects as of 20-Mar-2019
HD Live streaming from Space Station
objects crossing your sky now

COSMOS 764

Track COSMOS 764 now!
10-day predictions
COSMOS 764 is classified as:


NORAD ID: 8288
Int'l Code: 1975-086D
Perigee: 1,485.4 km
Apogee: 1,533.2 km
Inclination: 74.0 °
Period: 116.0 minutes
Semi major axis: 7880 km
RCS: 0.7209 m2 (medium)
Launch date: September 17, 1975
Source: Commonwealth of Independent States (former USSR) (CIS)
Launch site: PLESETSK MISSILE AND SPACE COMPLEX (PKMTR)
aabbcc
Your satellite tracking list
Your tracking list is empty




NASA's NSSDC Master Catalog

Two Line Element Set (TLE):
1  8288U 75086D   19078.33155782 -.00000038 +00000-0 -16799-3 0  9999
2  8288 074.0097 205.5517 0030325 201.9654 186.1540 12.41051650970859
Source of the keplerian elements: AFSPC